#timestamp,LO_Frequency,Hit,StdDev 
1663563615.6,286046998.0,N
1663563635.4,286046991.1,N
1663563655.2,286046990.3,N
1663563675.1,286046992.7,N
1663563676.0,286046992.7,N
1663563695.8,286046987.1,N
1663563715.6,286046989.3,N
1663563735.5,286046992.4,N
1663563755.3,286046993.2,N
1663563775.1,286046993.9,N
1663563795.9,286046995.1,N
1663563815.7,286046995.7,N
1663563835.6,286046999.2,N
1663563855.4,286046999.3,N
1663563875.2,286046998.7,N
1663563895.1,286046996.9,N
1663563896.0,286046996.9,N
1663563915.8,286047001.2,N
1663563935.7,286046996.1,N
1663563955.5,286046995.5,N
1663563975.3,286046998.3,N
1663563995.2,286046995.7,N
1663564015.9,286046990.1,N
1663564035.7,286046988.7,N
1663564055.6,286046991.2,N
1663564075.4,286046994.8,N
1663564095.2,286046995.7,N
1663564115.1,286046990.6,N
1663564116.0,286046990.6,N
1663564135.8,286046996.3,N
1663564155.7,286046997.8,N
1663564175.5,286046995.0,N
1663564195.3,286046995.1,N
1663564215.2,286047001.0,N
1663564235.0,286046993.5,N
1663564235.9,286046993.5,N
1663564255.8,286046996.1,N
1663564275.6,286046996.7,N
1663564295.4,286047002.1,N
1663564315.3,286047000.9,N
1663564335.1,286047005.9,N
1663564355.8,286046996.5,N
1663564375.7,286046997.2,N
1663564395.5,286046995.2,N
1663564415.3,286046997.8,N
1663564435.2,286047001.2,N
1663564485.1,286047007.2,E
1663564495.9,286047000.1,N
1663564515.7,286046996.6,P
1663564535.6,286046998.1,N
1663564555.4,286047002.8,N
1663564575.2,286046996.0,N
1663564595.1,286046994.6,N
1663564596.0,286046994.6,N
1663564615.8,286046992.2,N
1663564635.7,286046992.0,N
1663564655.5,286046995.3,N
1663564675.3,286046995.1,N
1663564695.2,286046992.5,N
1663564715.0,286046989.7,Y
1663564715.9,286046989.7,P
1663564735.8,286046994.9,N
1663564755.6,286046996.5,N
1663564775.4,286047000.0,N
1663564795.3,286046995.5,N
1663564815.1,286046998.6,N
1663564835.8,286046999.4,N
1663564855.7,286046995.3,N
1663564875.5,286046995.6,N
1663564895.4,286047003.5,N
1663564915.2,286047006.0,N
1663564935.0,286046996.9,N
1663564935.9,286046996.9,N
1663564955.8,286046996.2,N
1663564975.6,286046999.3,N
1663564995.4,286047001.6,N
1663565015.3,286047000.5,N
1663565035.1,286047001.3,N
1663565055.9,286047000.4,N
1663565075.7,286046995.3,N
1663565095.5,286046997.3,N
1663565115.4,286046994.5,N
1663565135.2,286046994.1,N
1663565155.0,286046993.4,N
1663565155.9,286046993.4,N
1663565175.8,286046988.7,Y
1663565195.6,286046990.7,P
1663565215.5,286046987.1,P
1663565235.3,286046987.6,N
1663565255.1,286046993.2,N
1663565275.9,286046988.2,Y
1663565295.7,286046996.9,P
1663565315.5,286046996.1,N
1663565335.4,286047002.6,N
1663565355.2,286047006.5,N
1663565375.1,286047008.1,N
1663565376.0,286047008.1,N
1663565395.8,286047007.9,N
1663565415.6,286047005.2,N
1663565435.5,286047000.0,N
1663565455.3,286046994.7,N
1663565475.2,286046988.7,N
1663565495.9,286046987.8,N
1663565515.7,286047002.4,N
1663565535.6,286047007.6,N
1663565555.4,286047008.3,N
1663565575.3,286047006.2,N
1663565595.1,286047008.1,N
1663565596.0,286047008.1,N
1663565615.8,286047004.8,N
1663565635.7,286047007.2,N
1663565655.5,286047005.7,N
1663565675.3,286047002.8,N
1663565695.2,286047004.4,N
1663565715.0,286047001.6,N
1663565715.9,286047001.6,N
1663565735.8,286046998.8,N
1663565755.6,286046997.2,N
1663565775.4,286046988.5,N
1663565795.3,286046984.6,N
1663565815.1,286046994.6,N
1663565835.9,286046994.8,N
1663565855.7,286046992.1,N
1663565875.5,286046997.9,N
1663565895.4,286046995.7,N
1663565915.2,286046994.2,N
1663565935.0,286046991.2,N
1663565935.9,286046991.2,N
1663565955.8,286046987.8,N
1663565975.6,286046983.3,N
1663565995.5,286046986.3,N
1663566015.3,286046989.3,N
1663566035.1,286046991.4,N
1663566055.9,286046993.0,N
1663566075.7,286046993.7,N
1663566095.5,286046987.8,N
1663566115.4,286046993.7,N
1663566135.2,286046994.9,N
1663566155.1,286046999.1,N
1663566156.0,286046999.1,N
1663566175.8,286047001.4,N
1663566195.6,286047000.4,N
1663566215.5,286046991.7,N
1663566235.3,286046992.5,N
1663566255.2,286046996.2,N
1663566275.9,286046995.3,N
1663566295.7,286046996.8,N
1663566315.6,286046995.0,N
1663566335.4,286046991.4,N
1663566355.2,286046993.0,N
1663566375.1,286046988.5,N
1663566376.0,286046988.5,N
1663566395.8,286046989.8,N
1663566415.7,286046988.5,N
1663566435.5,286046986.5,Y
1663566455.3,286046996.8,P
1663566475.2,286047000.7,N
1663566495.0,286046992.5,N
1663566495.9,286046992.5,N
1663566515.8,286046995.8,N
1663566535.6,286047002.5,N
1663566555.4,286047001.9,N
1663566575.3,286047000.0,N
1663566595.1,286046996.4,N
1663566615.8,286046994.6,N
1663566635.7,286046998.3,N
1663566655.5,286047003.8,N
1663566675.4,286047003.6,N
1663566695.2,286047006.7,N
1663566715.0,286047008.0,N
1663566715.9,286047008.0,N
1663566735.8,286047000.4,N
1663566755.6,286046990.6,N
1663566775.4,286046992.2,N
1663566795.3,286046993.4,N
1663566815.1,286046997.7,N
1663566835.9,286046993.9,N
1663566855.7,286046997.8,N
1663566875.5,286046995.9,N
1663566895.4,286046996.2,N
1663566915.2,286046998.9,N
1663566935.0,286047001.1,N
1663566935.9,286047001.1,N
1663566955.8,286046999.7,N
1663566975.6,286047001.8,N
1663566995.5,286047000.2,N
1663567015.3,286047003.2,N
1663567035.1,286047007.6,N
1663567055.9,286047006.1,N
1663567075.7,286047012.4,N
1663567095.5,286047012.4,N
1663567115.4,286047013.4,N
1663567135.2,286047002.9,N
1663567155.1,286047002.4,N
1663567156.0,286047002.4,N
1663567175.8,286047003.3,N
1663567195.6,286047002.8,N
